owner,sensor,date,latitude,longitude,vertical_datum,sea_water_temperature,qcFlag 
TABS,ioos:station:wmo:42043:1,2002-06-01T00:00:00Z,28.9818,-94.9186,-2.0,17.1,11111222 
TABS,ioos:station:wmo:42043:1,2002-06-01T00:30:00Z,28.9818,-94.9186,-2.0,17.1,11111222 
TABS,ioos:station:wmo:42043:1,2002-06-01T01:00:00Z,28.9818,-94.9186,-2.0,17.1,11111222 
TABS,ioos:station:wmo:42043:1,2002-06-01T01:30:00Z,28.9818,-94.9186,-2.0,17.1,11111222 
TABS,ioos:station:wmo:42043:1,2002-06-01T02:00:00Z,28.9818,-94.9186,-2.0,17.1,11111222 
TABS,ioos:station:wmo:42043:1,2002-06-01T02:30:00Z,28.9818,-94.9186,-2.0,17.1,11111222 
TABS,ioos:station:wmo:42043:1,2002-06-01T03:30:00Z,28.9818,-94.9186,-2.0,17.1,11111222 
TABS,ioos:station:wmo:42043:1,2002-06-01T04:00:00Z,28.9818,-94.9186,-2.0,17.1,11111222 
TABS,ioos:station:wmo:42043:1,2002-06-01T04:30:00Z,28.9818,-94.9186,-2.0,17.1,11111222 
TABS,ioos:station:wmo:42043:1,2002-06-01T05:00:00Z,28.9818,-94.9186,-2.0,17.1,11111222 
TABS,ioos:station:wmo:42043:1,2002-06-01T05:30:00Z,28.9818,-94.9186,-2.0,17.1,11111222 
TABS,ioos:station:wmo:42043:1,2002-06-01T06:00:00Z,28.9818,-94.9186,-2.0,17.1,11111222 
TABS,ioos:station:wmo:42043:1,2002-06-01T06:30:00Z,28.9818,-94.9186,-2.0,17.1,11111222 
TABS,ioos:station:wmo:42043:1,2002-06-01T07:00:00Z,28.9818,-94.9186,-2.0,17.1,11111222 
TABS,ioos:station:wmo:42043:1,2002-06-01T07:30:00Z,28.9818,-94.9186,-2.0,17.1,11111222 
TABS,ioos:station:wmo:42043:1,2002-06-01T08:00:00Z,28.9818,-94.9186,-2.0,17.1,11111222 
TABS,ioos:station:wmo:42043:1,2002-06-01T08:30:00Z,28.9818,-94.9186,-2.0,17.1,11111222 
TABS,ioos:station:wmo:42043:1,2002-06-01T09:00:00Z,28.9818,-94.9186,-2.0,17.1,11111222 
TABS,ioos:station:wmo:42043:1,2002-06-01T09:30:00Z,28.9818,-94.9186,-2.0,17.1,11111222 
TABS,ioos:station:wmo:42043:1,2002-06-01T10:00:00Z,28.9818,-94.9186,-2.0,17.1,11111222 
TABS,ioos:station:wmo:42043:1,2002-06-01T10:30:00Z,28.9818,-94.9186,-2.0,17.1,11111222 
TABS,ioos:station:wmo:42043:1,2002-06-01T11:00:00Z,28.9818,-94.9186,-2.0,17.1,11111222 
TABS,ioos:station:wmo:42043:1,2002-06-01T11:30:00Z,28.9818,-94.9186,-2.0,17.2,11111222 
TABS,ioos:station:wmo:42043:1,2002-06-01T12:00:00Z,28.9818,-94.9186,-2.0,17.2,11111222 
TABS,ioos:station:wmo:42043:1,2002-06-01T12:30:00Z,28.9818,-94.9186,-2.0,17.2,11111222 
TABS,ioos:station:wmo:42043:1,2002-06-01T13:00:00Z,28.9818,-94.9186,-2.0,17.1,11111222 
TABS,ioos:station:wmo:42043:1,2002-06-01T13:30:00Z,28.9818,-94.9186,-2.0,17.2,11111222 
TABS,ioos:station:wmo:42043:1,2002-06-01T15:00:00Z,28.9818,-94.9186,-2.0,17.1,11111222 
TABS,ioos:station:wmo:42043:1,2002-06-01T15:30:00Z,28.9818,-94.9186,-2.0,17.1,11111222 
TABS,ioos:station:wmo:42043:1,2002-06-01T16:00:00Z,28.9818,-94.9186,-2.0,17.1,11111222 
TABS,ioos:station:wmo:42043:1,2002-06-01T16:30:00Z,28.9818,-94.9186,-2.0,17.0,11111222 
TABS,ioos:station:wmo:42043:1,2002-06-01T17:00:00Z,28.9818,-94.9186,-2.0,17.1,11111222 
TABS,ioos:station:wmo:42043:1,2002-06-01T17:30:00Z,28.9818,-94.9186,-2.0,17.0,11111222 
TABS,ioos:station:wmo:42043:1,2002-06-01T18:00:00Z,28.9818,-94.9186,-2.0,17.0,11111222 
TABS,ioos:station:wmo:42043:1,2002-06-01T18:30:00Z,28.9818,-94.9186,-2.0,17.0,11111222 
TABS,ioos:station:wmo:42043:1,2002-06-01T19:00:00Z,28.9818,-94.9186,-2.0,17.0,11111222 
TABS,ioos:station:wmo:42043:1,2002-06-01T19:30:00Z,28.9818,-94.9186,-2.0,16.8,11111222 
TABS,ioos:station:wmo:42043:1,2002-06-01T20:00:00Z,28.9818,-94.9186,-2.0,16.8,11111222 
TABS,ioos:station:wmo:42043:1,2002-06-01T21:00:00Z,28.9818,-94.9186,-2.0,16.8,11111222 
TABS,ioos:station:wmo:42043:1,2002-06-01T21:30:00Z,28.9818,-94.9186,-2.0,16.8,11111222 
TABS,ioos:station:wmo:42043:1,2002-06-01T22:00:00Z,28.9818,-94.9186,-2.0,16.8,11111222 
TABS,ioos:station:wmo:42043:1,2002-06-01T22:30:00Z,28.9818,-94.9186,-2.0,17.0,11111222 
TABS,ioos:station:wmo:42043:1,2002-06-01T23:00:00Z,28.9818,-94.9186,-2.0,17.0,11111222 
TABS,ioos:station:wmo:42043:1,2002-06-01T23:30:00Z,28.9818,-94.9186,-2.0,17.0,11111222 
TABS,ioos:station:wmo:42043:1,2002-06-02T00:00:00Z,28.9818,-94.9186,-2.0,16.8,11111222 
TABS,ioos:station:wmo:42043:1,2002-06-02T00:30:00Z,28.9818,-94.9186,-2.0,16.8,11111222 
TABS,ioos:station:wmo:42043:1,2002-06-02T01:00:00Z,28.9818,-94.9186,-2.0,17.0,11111222 
TABS,ioos:station:wmo:42043:1,2002-06-02T01:30:00Z,28.9818,-94.9186,-2.0,17.0,11111222 
TABS,ioos:station:wmo:42043:1,2002-06-02T02:00:00Z,28.9818,-94.9186,-2.0,17.0,11111222 
TABS,ioos:station:wmo:42043:1,2002-06-02T03:30:00Z,28.9818,-94.9186,-2.0,17.0,11111222 
TABS,ioos:station:wmo:42043:1,2002-06-02T04:00:00Z,28.9818,-94.9186,-2.0,17.1,11111222 
TABS,ioos:station:wmo:42043:1,2002-06-02T04:30:00Z,28.9818,-94.9186,-2.0,17.1,11111222 
TABS,ioos:station:wmo:42043:1,2002-06-02T05:00:00Z,28.9818,-94.9186,-2.0,17.1,11111222 
TABS,ioos:station:wmo:42043:1,2002-06-02T05:30:00Z,28.9818,-94.9186,-2.0,17.1,11111222 
TABS,ioos:station:wmo:42043:1,2002-06-02T06:00:00Z,28.9818,-94.9186,-2.0,17.1,11111222 
TABS,ioos:station:wmo:42043:1,2002-06-02T06:30:00Z,28.9818,-94.9186,-2.0,17.1,11111222 
TABS,ioos:station:wmo:42043:1,2002-06-02T07:00:00Z,28.9818,-94.9186,-2.0,17.1,11111222 
TABS,ioos:station:wmo:42043:1,2002-06-02T07:30:00Z,28.9818,-94.9186,-2.0,17.1,11111222 
TABS,ioos:station:wmo:42043:1,2002-06-02T08:00:00Z,28.9818,-94.9186,-2.0,17.1,11111222 
TABS,ioos:station:wmo:42043:1,2002-06-02T08:30:00Z,28.9818,-94.9186,-2.0,17.1,11111222 
TABS,ioos:station:wmo:42043:1,2002-06-02T09:00:00Z,28.9818,-94.9186,-2.0,17.1,11111222 
TABS,ioos:station:wmo:42043:1,2002-06-02T09:30:00Z,28.9818,-94.9186,-2.0,17.1,11111222 
TABS,ioos:station:wmo:42043:1,2002-06-02T10:00:00Z,28.9818,-94.9186,-2.0,17.1,11111222 
TABS,ioos:station:wmo:42043:1,2002-06-02T10:30:00Z,28.9818,-94.9186,-2.0,17.1,11111222 
TABS,ioos:station:wmo:42043:1,2002-06-02T11:00:00Z,28.9818,-94.9186,-2.0,17.2,11111222 
TABS,ioos:station:wmo:42043:1,2002-06-02T11:30:00Z,28.9818,-94.9186,-2.0,17.2,11111222 
TABS,ioos:station:wmo:42043:1,2002-06-02T12:00:00Z,28.9818,-94.9186,-2.0,17.2,11111222 
TABS,ioos:station:wmo:42043:1,2002-06-02T12:30:00Z,28.9818,-94.9186,-2.0,17.2,11111222 
TABS,ioos:station:wmo:42043:1,2002-06-02T13:00:00Z,28.9818,-94.9186,-2.0,17.2,11111222 
TABS,ioos:station:wmo:42043:1,2002-06-02T13:30:00Z,28.9818,-94.9186,-2.0,17.2,11111222 
TABS,ioos:station:wmo:42043:1,2002-06-02T14:00:00Z,28.9818,-94.9186,-2.0,17.2,11111222 
TABS,ioos:station:wmo:42043:1,2002-06-02T14:30:00Z,28.9818,-94.9186,-2.0,17.1,11111222 
TABS,ioos:station:wmo:42043:1,2002-06-02T15:00:00Z,28.9818,-94.9186,-2.0,17.1,11111222 
TABS,ioos:station:wmo:42043:1,2002-06-02T15:30:00Z,28.9818,-94.9186,-2.0,17.1,11111222 
TABS,ioos:station:wmo:42043:1,2002-06-02T16:00:00Z,28.9818,-94.9186,-2.0,17.1,11111222 
TABS,ioos:station:wmo:42043:1,2002-06-02T16:30:00Z,28.9818,-94.9186,-2.0,17.1,11111222 
TABS,ioos:station:wmo:42043:1,2002-06-02T17:00:00Z,28.9818,-94.9186,-2.0,17.1,11111222 
TABS,ioos:station:wmo:42043:1,2002-06-02T17:30:00Z,28.9818,-94.9186,-2.0,17.1,11111222 
TABS,ioos:station:wmo:42043:1,2002-06-02T18:00:00Z,28.9818,-94.9186,-2.0,17.0,11111222 
TABS,ioos:station:wmo:42043:1,2002-06-02T18:30:00Z,28.9818,-94.9186,-2.0,17.0,11111222 
TABS,ioos:station:wmo:42043:1,2002-06-02T19:00:00Z,28.9818,-94.9186,-2.0,16.8,11111222 
TABS,ioos:station:wmo:42043:1,2002-06-02T19:30:00Z,28.9818,-94.9186,-2.0,16.8,11111222 
TABS,ioos:station:wmo:42043:1,2002-06-02T20:00:00Z,28.9818,-94.9186,-2.0,16.8,11111222 
TABS,ioos:station:wmo:42043:1,2002-06-02T20:30:00Z,28.9818,-94.9186,-2.0,16.8,11111222 
TABS,ioos:station:wmo:42043:1,2002-06-02T21:00:00Z,28.9818,-94.9186,-2.0,16.7,11111222 
TABS,ioos:station:wmo:42043:1,2002-06-02T21:30:00Z,28.9818,-94.9186,-2.0,16.7,11111222 
TABS,ioos:station:wmo:42043:1,2002-06-02T22:00:00Z,28.9818,-94.9186,-2.0,16.8,11111222 
TABS,ioos:station:wmo:42043:1,2002-06-02T22:30:00Z,28.9818,-94.9186,-2.0,16.7,11111222 
TABS,ioos:station:wmo:42043:1,2002-06-02T23:00:00Z,28.9818,-94.9186,-2.0,16.7,11111222 
TABS,ioos:station:wmo:42043:1,2002-06-02T23:30:00Z,28.9818,-94.9186,-2.0,16.7,11111222 
TABS,ioos:station:wmo:42043:1,2002-06-03T00:00:00Z,28.9818,-94.9186,-2.0,16.8,11111222 
TABS,ioos:station:wmo:42043:1,2002-06-03T21:30:00Z,28.9818,-94.9186,-2.0,16.4,11111222 
TABS,ioos:station:wmo:42043:1,2002-06-03T22:00:00Z,28.9818,-94.9186,-2.0,16.4,11111222 
TABS,ioos:station:wmo:42043:1,2002-06-03T22:30:00Z,28.9818,-94.9186,-2.0,16.2,11111222 
TABS,ioos:station:wmo:42043:1,2002-06-03T23:00:00Z,28.9818,-94.9186,-2.0,16.2,11111222 
TABS,ioos:station:wmo:42043:1,2002-06-03T23:30:00Z,28.9818,-94.9186,-2.0,16.2,11111222 
TABS,ioos:station:wmo:42043:1,2002-06-04T00:00:00Z,28.9818,-94.9186,-2.0,16.4,11111222 
TABS,ioos:station:wmo:42043:1,2002-06-04T00:30:00Z,28.9818,-94.9186,-2.0,16.4,11111222 
TABS,ioos:station:wmo:42043:1,2002-06-04T01:00:00Z,28.9818,-94.9186,-2.0,16.5,11111222 
TABS,ioos:station:wmo:42043:1,2002-06-04T01:30:00Z,28.9818,-94.9186,-2.0,16.5,11111222 
TABS,ioos:station:wmo:42043:1,2002-06-04T03:00:00Z,28.9818,-94.9186,-2.0,16.5,11111222 
TABS,ioos:station:wmo:42043:1,2002-06-04T03:30:00Z,28.9818,-94.9186,-2.0,16.7,11111222 
TABS,ioos:station:wmo:42043:1,2002-06-04T04:00:00Z,28.9818,-94.9186,-2.0,16.7,11111222 
TABS,ioos:station:wmo:42043:1,2002-06-04T04:30:00Z,28.9818,-94.9186,-2.0,16.7,11111222 
TABS,ioos:station:wmo:42043:1,2002-06-04T05:00:00Z,28.9818,-94.9186,-2.0,16.5,11111222 
TABS,ioos:station:wmo:42043:1,2002-06-04T05:30:00Z,28.9818,-94.9186,-2.0,16.5,11111222 
TABS,ioos:station:wmo:42043:1,2002-06-04T06:00:00Z,28.9818,-94.9186,-2.0,16.5,11111222 
TABS,ioos:station:wmo:42043:1,2002-06-04T06:30:00Z,28.9818,-94.9186,-2.0,16.5,11111222 
TABS,ioos:station:wmo:42043:1,2002-06-04T07:00:00Z,28.9818,-94.9186,-2.0,16.5,11111222 
TABS,ioos:station:wmo:42043:1,2002-06-04T07:30:00Z,28.9818,-94.9186,-2.0,16.7,11111222 
TABS,ioos:station:wmo:42043:1,2002-06-04T08:00:00Z,28.9818,-94.9186,-2.0,16.5,11111222 
TABS,ioos:station:wmo:42043:1,2002-06-04T08:30:00Z,28.9818,-94.9186,-2.0,16.7,11111222 
TABS,ioos:station:wmo:42043:1,2002-06-04T09:00:00Z,28.9818,-94.9186,-2.0,16.7,11111222 
TABS,ioos:station:wmo:42043:1,2002-06-04T09:30:00Z,28.9818,-94.9186,-2.0,16.7,11111222 
TABS,ioos:station:wmo:42043:1,2002-06-04T10:00:00Z,28.9818,-94.9186,-2.0,16.7,11111222 
TABS,ioos:station:wmo:42043:1,2002-06-04T10:30:00Z,28.9818,-94.9186,-2.0,16.7,11111222 
TABS,ioos:station:wmo:42043:1,2002-06-04T11:00:00Z,28.9818,-94.9186,-2.0,16.7,11111222 
TABS,ioos:station:wmo:42043:1,2002-06-04T11:30:00Z,28.9818,-94.9186,-2.0,16.7,11111222 
TABS,ioos:station:wmo:42043:1,2002-06-04T12:00:00Z,28.9818,-94.9186,-2.0,16.7,11111222 
TABS,ioos:station:wmo:42043:1,2002-06-04T12:30:00Z,28.9818,-94.9186,-2.0,16.7,11111222 
TABS,ioos:station:wmo:42043:1,2002-06-04T13:00:00Z,28.9818,-94.9186,-2.0,16.7,11111222 
TABS,ioos:station:wmo:42043:1,2002-06-04T13:30:00Z,28.9818,-94.9186,-2.0,16.7,11111222 
TABS,ioos:station:wmo:42043:1,2002-06-04T14:00:00Z,28.9818,-94.9186,-2.0,16.7,11111222 
TABS,ioos:station:wmo:42043:1,2002-06-04T14:30:00Z,28.9818,-94.9186,-2.0,16.7,11111222 
TABS,ioos:station:wmo:42043:1,2002-06-04T15:00:00Z,28.9818,-94.9186,-2.0,16.7,11111222 
TABS,ioos:station:wmo:42043:1,2002-06-04T15:30:00Z,28.9818,-94.9186,-2.0,16.7,11111222 
TABS,ioos:station:wmo:42043:1,2002-06-04T16:00:00Z,28.9818,-94.9186,-2.0,16.5,11111222 
TABS,ioos:station:wmo:42043:1,2002-06-04T16:30:00Z,28.9818,-94.9186,-2.0,16.5,11111222 
TABS,ioos:station:wmo:42043:1,2002-06-04T17:00:00Z,28.9818,-94.9186,-2.0,16.5,11111222 
TABS,ioos:station:wmo:42043:1,2002-06-04T17:30:00Z,28.9818,-94.9186,-2.0,16.4,11111222 
TABS,ioos:station:wmo:42043:1,2002-06-04T18:00:00Z,28.9818,-94.9186,-2.0,16.4,11111222 
TABS,ioos:station:wmo:42043:1,2002-06-04T18:30:00Z,28.9818,-94.9186,-2.0,16.4,11111222 
TABS,ioos:station:wmo:42043:1,2002-06-04T19:00:00Z,28.9818,-94.9186,-2.0,16.4,11111222 
TABS,ioos:station:wmo:42043:1,2002-06-04T19:30:00Z,28.9818,-94.9186,-2.0,16.4,11111222 
TABS,ioos:station:wmo:42043:1,2002-06-04T20:00:00Z,28.9818,-94.9186,-2.0,16.2,11111222 
TABS,ioos:station:wmo:42043:1,2002-06-04T20:30:00Z,28.9818,-94.9186,-2.0,16.2,11111222 
TABS,ioos:station:wmo:42043:1,2002-06-04T21:00:00Z,28.9818,-94.9186,-2.0,16.2,11111222 
TABS,ioos:station:wmo:42043:1,2002-06-04T21:30:00Z,28.9818,-94.9186,-2.0,16.1,11111222 
TABS,ioos:station:wmo:42043:1,2002-06-04T22:00:00Z,28.9818,-94.9186,-2.0,16.1,11111222 
TABS,ioos:station:wmo:42043:1,2002-06-04T22:30:00Z,28.9818,-94.9186,-2.0,16.1,11111222 
TABS,ioos:station:wmo:42043:1,2002-06-04T23:00:00Z,28.9818,-94.9186,-2.0,16.1,11111222 
TABS,ioos:station:wmo:42043:1,2002-06-04T23:30:00Z,28.9818,-94.9186,-2.0,16.2,11111222 
TABS,ioos:station:wmo:42043:1,2002-06-05T00:00:00Z,28.9818,-94.9186,-2.0,16.2,11111222 
TABS,ioos:station:wmo:42043:1,2002-06-05T00:30:00Z,28.9818,-94.9186,-2.0,16.2,11111222 
TABS,ioos:station:wmo:42043:1,2002-06-05T01:00:00Z,28.9818,-94.9186,-2.0,16.2,11111222 
TABS,ioos:station:wmo:42043:1,2002-06-05T01:30:00Z,28.9818,-94.9186,-2.0,16.2,11111222 
TABS,ioos:station:wmo:42043:1,2002-06-05T02:00:00Z,28.9818,-94.9186,-2.0,16.2,11111222 
TABS,ioos:station:wmo:42043:1,2002-06-05T02:30:00Z,28.9818,-94.9186,-2.0,16.1,11111222 
TABS,ioos:station:wmo:42043:1,2002-06-05T03:00:00Z,28.9818,-94.9186,-2.0,16.2,11111222 
TABS,ioos:station:wmo:42043:1,2002-06-05T03:30:00Z,28.9818,-94.9186,-2.0,16.2,11111222 
TABS,ioos:station:wmo:42043:1,2002-06-05T04:00:00Z,28.9818,-94.9186,-2.0,16.4,11111222 
TABS,ioos:station:wmo:42043:1,2002-06-05T04:30:00Z,28.9818,-94.9186,-2.0,16.4,11111222 
TABS,ioos:station:wmo:42043:1,2002-06-05T05:30:00Z,28.9818,-94.9186,-2.0,16.4,11111222 
TABS,ioos:station:wmo:42043:1,2002-06-05T06:00:00Z,28.9818,-94.9186,-2.0,16.4,11111222 
TABS,ioos:station:wmo:42043:1,2002-06-05T06:30:00Z,28.9818,-94.9186,-2.0,16.4,11111222 
TABS,ioos:station:wmo:42043:1,2002-06-05T07:00:00Z,28.9818,-94.9186,-2.0,16.4,11111222 
TABS,ioos:station:wmo:42043:1,2002-06-05T07:30:00Z,28.9818,-94.9186,-2.0,16.2,11111222 
TABS,ioos:station:wmo:42043:1,2002-06-05T08:00:00Z,28.9818,-94.9186,-2.0,16.2,11111222 
TABS,ioos:station:wmo:42043:1,2002-06-05T08:30:00Z,28.9818,-94.9186,-2.0,16.2,11111222 
TABS,ioos:station:wmo:42043:1,2002-06-05T09:00:00Z,28.9818,-94.9186,-2.0,16.4,11111222 
TABS,ioos:station:wmo:42043:1,2002-06-05T09:30:00Z,28.9818,-94.9186,-2.0,16.4,11111222 
TABS,ioos:station:wmo:42043:1,2002-06-05T10:00:00Z,28.9818,-94.9186,-2.0,16.4,11111222 
TABS,ioos:station:wmo:42043:1,2002-06-05T10:30:00Z,28.9818,-94.9186,-2.0,16.4,11111222 
TABS,ioos:station:wmo:42043:1,2002-06-05T11:00:00Z,28.9818,-94.9186,-2.0,16.4,11111222 
TABS,ioos:station:wmo:42043:1,2002-06-05T11:30:00Z,28.9818,-94.9186,-2.0,16.4,11111222 
TABS,ioos:station:wmo:42043:1,2002-06-05T12:00:00Z,28.9818,-94.9186,-2.0,16.4,11111222 
TABS,ioos:station:wmo:42043:1,2002-06-05T12:30:00Z,28.9818,-94.9186,-2.0,16.4,11111222 
TABS,ioos:station:wmo:42043:1,2002-06-05T13:00:00Z,28.9818,-94.9186,-2.0,16.5,11111222 
TABS,ioos:station:wmo:42043:1,2002-06-05T13:30:00Z,28.9818,-94.9186,-2.0,16.5,11111222 
TABS,ioos:station:wmo:42043:1,2002-06-05T14:00:00Z,28.9818,-94.9186,-2.0,16.5,11111222 
TABS,ioos:station:wmo:42043:1,2002-06-05T14:30:00Z,28.9818,-94.9186,-2.0,16.5,11111222 
TABS,ioos:station:wmo:42043:1,2002-06-05T15:00:00Z,28.9818,-94.9186,-2.0,16.4,11111222 
TABS,ioos:station:wmo:42043:1,2002-06-05T16:00:00Z,28.9818,-94.9186,-2.0,16.4,11111222 
TABS,ioos:station:wmo:42043:1,2002-06-05T16:30:00Z,28.9818,-94.9186,-2.0,16.4,11111222 
TABS,ioos:station:wmo:42043:1,2002-06-05T17:00:00Z,28.9818,-94.9186,-2.0,16.2,11111222 
TABS,ioos:station:wmo:42043:1,2002-06-05T17:30:00Z,28.9818,-94.9186,-2.0,16.2,11111222 
TABS,ioos:station:wmo:42043:1,2002-06-05T18:00:00Z,28.9818,-94.9186,-2.0,16.2,11111222 
TABS,ioos:station:wmo:42043:1,2002-06-05T18:30:00Z,28.9818,-94.9186,-2.0,16.1,11111222 
TABS,ioos:station:wmo:42043:1,2002-06-05T19:00:00Z,28.9818,-94.9186,-2.0,16.1,11111222 
TABS,ioos:station:wmo:42043:1,2002-06-05T19:30:00Z,28.9818,-94.9186,-2.0,16.1,11111222 
TABS,ioos:station:wmo:42043:1,2002-06-05T20:00:00Z,28.9818,-94.9186,-2.0,16.1,11111222 
TABS,ioos:station:wmo:42043:1,2002-06-05T20:30:00Z,28.9818,-94.9186,-2.0,15.9,11111222 
TABS,ioos:station:wmo:42043:1,2002-06-05T21:00:00Z,28.9818,-94.9186,-2.0,15.9,11111222 
TABS,ioos:station:wmo:42043:1,2002-06-05T21:30:00Z,28.9818,-94.9186,-2.0,15.9,11111222 
TABS,ioos:station:wmo:42043:1,2002-06-05T22:00:00Z,28.9818,-94.9186,-2.0,15.9,11111222 
TABS,ioos:station:wmo:42043:1,2002-06-05T22:30:00Z,28.9818,-94.9186,-2.0,15.9,11111222 
TABS,ioos:station:wmo:42043:1,2002-06-05T23:00:00Z,28.9818,-94.9186,-2.0,15.8,11111222 
TABS,ioos:station:wmo:42043:1,2002-06-05T23:30:00Z,28.9818,-94.9186,-2.0,15.9,11111222 
TABS,ioos:station:wmo:42043:1,2002-06-06T00:00:00Z,28.9818,-94.9186,-2.0,15.9,11111222 
TABS,ioos:station:wmo:42043:1,2002-06-06T00:30:00Z,28.9818,-94.9186,-2.0,15.9,11111222 
TABS,ioos:station:wmo:42043:1,2002-06-06T01:00:00Z,28.9818,-94.9186,-2.0,16.1,11111222 
TABS,ioos:station:wmo:42043:1,2002-06-06T01:30:00Z,28.9818,-94.9186,-2.0,16.1,11111222 
TABS,ioos:station:wmo:42043:1,2002-06-06T02:00:00Z,28.9818,-94.9186,-2.0,16.1,11111222 
TABS,ioos:station:wmo:42043:1,2002-06-06T04:30:00Z,28.9818,-94.9186,-2.0,16.1,11111222 
TABS,ioos:station:wmo:42043:1,2002-06-06T05:00:00Z,28.9818,-94.9186,-2.0,16.1,11111222 
TABS,ioos:station:wmo:42043:1,2002-06-06T05:30:00Z,28.9818,-94.9186,-2.0,16.1,11111222 
TABS,ioos:station:wmo:42043:1,2002-06-06T06:00:00Z,28.9818,-94.9186,-2.0,16.1,11111222 
TABS,ioos:station:wmo:42043:1,2002-06-06T06:30:00Z,28.9818,-94.9186,-2.0,16.1,11111222 
TABS,ioos:station:wmo:42043:1,2002-06-06T07:00:00Z,28.9818,-94.9186,-2.0,16.1,11111222 
TABS,ioos:station:wmo:42043:1,2002-06-06T07:30:00Z,28.9818,-94.9186,-2.0,16.1,11111222 
TABS,ioos:station:wmo:42043:1,2002-06-06T08:00:00Z,28.9818,-94.9186,-2.0,16.1,11111222 
TABS,ioos:station:wmo:42043:1,2002-06-06T08:30:00Z,28.9818,-94.9186,-2.0,16.1,11111222 
TABS,ioos:station:wmo:42043:1,2002-06-06T09:00:00Z,28.9818,-94.9186,-2.0,16.1,11111222 
TABS,ioos:station:wmo:42043:1,2002-06-06T09:30:00Z,28.9818,-94.9186,-2.0,16.2,11111222 
TABS,ioos:station:wmo:42043:1,2002-06-06T10:00:00Z,28.9818,-94.9186,-2.0,16.2,11111222 
TABS,ioos:station:wmo:42043:1,2002-06-06T10:30:00Z,28.9818,-94.9186,-2.0,16.2,11111222 
TABS,ioos:station:wmo:42043:1,2002-06-06T11:00:00Z,28.9818,-94.9186,-2.0,16.2,11111222 
TABS,ioos:station:wmo:42043:1,2002-06-06T11:30:00Z,28.9818,-94.9186,-2.0,16.2,11111222 
TABS,ioos:station:wmo:42043:1,2002-06-06T12:00:00Z,28.9818,-94.9186,-2.0,16.2,11111222 
TABS,ioos:station:wmo:42043:1,2002-06-06T12:30:00Z,28.9818,-94.9186,-2.0,16.2,11111222 
TABS,ioos:station:wmo:42043:1,2002-06-06T13:00:00Z,28.9818,-94.9186,-2.0,16.2,11111222 
TABS,ioos:station:wmo:42043:1,2002-06-06T14:00:00Z,28.9818,-94.9186,-2.0,16.2,11111222 
TABS,ioos:station:wmo:42043:1,2002-06-06T14:30:00Z,28.9818,-94.9186,-2.0,16.2,11111222 
TABS,ioos:station:wmo:42043:1,2002-06-06T15:00:00Z,28.9818,-94.9186,-2.0,16.2,11111222 
TABS,ioos:station:wmo:42043:1,2002-06-06T15:30:00Z,28.9818,-94.9186,-2.0,16.1,11111222 
TABS,ioos:station:wmo:42043:1,2002-06-06T16:00:00Z,28.9818,-94.9186,-2.0,16.1,11111222 
TABS,ioos:station:wmo:42043:1,2002-06-06T16:30:00Z,28.9818,-94.9186,-2.0,16.1,11111222 
TABS,ioos:station:wmo:42043:1,2002-06-06T17:00:00Z,28.9818,-94.9186,-2.0,16.1,11111222 
TABS,ioos:station:wmo:42043:1,2002-06-06T17:30:00Z,28.9818,-94.9186,-2.0,16.1,11111222 
TABS,ioos:station:wmo:42043:1,2002-06-06T18:00:00Z,28.9818,-94.9186,-2.0,16.1,11111222 
TABS,ioos:station:wmo:42043:1,2002-06-06T18:30:00Z,28.9818,-94.9186,-2.0,15.9,11111222 
TABS,ioos:station:wmo:42043:1,2002-06-06T19:00:00Z,28.9818,-94.9186,-2.0,15.9,11111222 
TABS,ioos:station:wmo:42043:1,2002-06-06T19:30:00Z,28.9818,-94.9186,-2.0,16.1,11111222 
TABS,ioos:station:wmo:42043:1,2002-06-06T20:00:00Z,28.9818,-94.9186,-2.0,16.1,11111222 
TABS,ioos:station:wmo:42043:1,2002-06-06T20:30:00Z,28.9818,-94.9186,-2.0,16.1,11111222 
TABS,ioos:station:wmo:42043:1,2002-06-06T21:00:00Z,28.9818,-94.9186,-2.0,15.7,11111222 
TABS,ioos:station:wmo:42043:1,2002-06-06T21:30:00Z,28.9818,-94.9186,-2.0,15.7,11111222 
TABS,ioos:station:wmo:42043:1,2002-06-06T22:00:00Z,28.9818,-94.9186,-2.0,15.8,11111222 
TABS,ioos:station:wmo:42043:1,2002-06-06T22:30:00Z,28.9818,-94.9186,-2.0,15.8,11111222 
TABS,ioos:station:wmo:42043:1,2002-06-06T23:00:00Z,28.9818,-94.9186,-2.0,15.8,11111222 
TABS,ioos:station:wmo:42043:1,2002-06-06T23:30:00Z,28.9818,-94.9186,-2.0,15.9,11111222 
TABS,ioos:station:wmo:42043:1,2002-06-07T00:00:00Z,28.9818,-94.9186,-2.0,15.9,11111222 
TABS,ioos:station:wmo:42043:1,2002-06-07T00:30:00Z,28.9818,-94.9186,-2.0,15.9,11111222 
TABS,ioos:station:wmo:42043:1,2002-06-07T01:00:00Z,28.9818,-94.9186,-2.0,16.1,11111222 
TABS,ioos:station:wmo:42043:1,2002-06-07T01:30:00Z,28.9818,-94.9186,-2.0,15.9,11111222 
TABS,ioos:station:wmo:42043:1,2002-06-07T02:00:00Z,28.9818,-94.9186,-2.0,16.1,11111222 
TABS,ioos:station:wmo:42043:1,2002-06-07T03:00:00Z,28.9818,-94.9186,-2.0,15.9,11111222 
TABS,ioos:station:wmo:42043:1,2002-06-07T03:30:00Z,28.9818,-94.9186,-2.0,16.1,11111222 
TABS,ioos:station:wmo:42043:1,2002-06-07T04:00:00Z,28.9818,-94.9186,-2.0,16.1,11111222 
TABS,ioos:station:wmo:42043:1,2002-06-07T04:30:00Z,28.9818,-94.9186,-2.0,16.1,11111222 
TABS,ioos:station:wmo:42043:1,2002-06-07T05:00:00Z,28.9818,-94.9186,-2.0,16.1,11111222 
TABS,ioos:station:wmo:42043:1,2002-06-07T05:30:00Z,28.9818,-94.9186,-2.0,16.1,11111222 
TABS,ioos:station:wmo:42043:1,2002-06-07T06:00:00Z,28.9818,-94.9186,-2.0,16.1,11111222 
TABS,ioos:station:wmo:42043:1,2002-06-07T06:30:00Z,28.9818,-94.9186,-2.0,16.2,11111222 
TABS,ioos:station:wmo:42043:1,2002-06-07T07:00:00Z,28.9818,-94.9186,-2.0,16.2,11111222 
TABS,ioos:station:wmo:42043:1,2002-06-07T07:30:00Z,28.9818,-94.9186,-2.0,16.1,11111222 
TABS,ioos:station:wmo:42043:1,2002-06-07T08:00:00Z,28.9818,-94.9186,-2.0,16.2,11111222 
TABS,ioos:station:wmo:42043:1,2002-06-07T08:30:00Z,28.9818,-94.9186,-2.0,16.1,11111222 
TABS,ioos:station:wmo:42043:1,2002-06-07T09:00:00Z,28.9818,-94.9186,-2.0,16.2,11111222 
TABS,ioos:station:wmo:42043:1,2002-06-07T09:30:00Z,28.9818,-94.9186,-2.0,16.1,11111222 
TABS,ioos:station:wmo:42043:1,2002-06-07T10:00:00Z,28.9818,-94.9186,-2.0,16.1,11111222 
TABS,ioos:station:wmo:42043:1,2002-06-07T10:30:00Z,28.9818,-94.9186,-2.0,16.1,11111222 
TABS,ioos:station:wmo:42043:1,2002-06-07T11:00:00Z,28.9818,-94.9186,-2.0,16.1,11111222 
TABS,ioos:station:wmo:42043:1,2002-06-07T11:30:00Z,28.9818,-94.9186,-2.0,16.1,11111222 
TABS,ioos:station:wmo:42043:1,2002-06-07T12:00:00Z,28.9818,-94.9186,-2.0,16.1,11111222 
TABS,ioos:station:wmo:42043:1,2002-06-07T12:30:00Z,28.9818,-94.9186,-2.0,16.1,11111222 
TABS,ioos:station:wmo:42043:1,2002-06-07T13:00:00Z,28.9818,-94.9186,-2.0,15.9,11111222 
TABS,ioos:station:wmo:42043:1,2002-06-07T13:30:00Z,28.9818,-94.9186,-2.0,16.1,11111222 
TABS,ioos:station:wmo:42043:1,2002-06-07T14:00:00Z,28.9818,-94.9186,-2.0,16.1,11111222 
TABS,ioos:station:wmo:42043:1,2002-06-07T14:30:00Z,28.9818,-94.9186,-2.0,16.1,11111222 
TABS,ioos:station:wmo:42043:1,2002-06-07T15:00:00Z,28.9818,-94.9186,-2.0,16.1,11111222 
TABS,ioos:station:wmo:42043:1,2002-06-07T15:30:00Z,28.9818,-94.9186,-2.0,16.1,11111222 
TABS,ioos:station:wmo:42043:1,2002-06-07T16:00:00Z,28.9818,-94.9186,-2.0,16.1,11111222 
TABS,ioos:station:wmo:42043:1,2002-06-07T16:30:00Z,28.9818,-94.9186,-2.0,15.9,11111222 
TABS,ioos:station:wmo:42043:1,2002-06-07T17:00:00Z,28.9818,-94.9186,-2.0,15.9,11111222 
TABS,ioos:station:wmo:42043:1,2002-06-07T17:30:00Z,28.9818,-94.9186,-2.0,15.9,11111222 
TABS,ioos:station:wmo:42043:1,2002-06-07T18:00:00Z,28.9818,-94.9186,-2.0,15.9,11111222 
TABS,ioos:station:wmo:42043:1,2002-06-07T18:30:00Z,28.9818,-94.9186,-2.0,15.9,11111222 
TABS,ioos:station:wmo:42043:1,2002-06-07T19:00:00Z,28.9818,-94.9186,-2.0,15.9,11111222 
TABS,ioos:station:wmo:42043:1,2002-06-07T19:30:00Z,28.9818,-94.9186,-2.0,15.8,11111222 
TABS,ioos:station:wmo:42043:1,2002-06-07T20:00:00Z,28.9818,-94.9186,-2.0,15.8,11111222 